Home   Weather   Germany   Amrum   Past weeks
Flag for Germany

Past Weather in Amrum, Schleswig-Holstein, Germany — Yesterday and Last 2 Weeks

Currently: 32 °F. Clear. (Weather station: Westerland / Sylt, Germany). See more current weather

Past Weather in Amrum — Graph

°F

Amrum Temperature Yesterday

Maximum temperature yesterday: 41 °F (at 10:20 am)
Minimum temperature yesterday: 32 °F (at 11:20 pm)
Average temperature yesterday: 38 °F

High & Low Weather Summary for the Past Weeks

 TemperatureHumidityPressure
High54 °F (Feb 24, 7:50 pm)100% (Feb 21, 6:50 pm)30.69 "Hg (Feb 21, 6:50 pm)
Low28 °F (Mar 2, 1:50 am)57% (Mar 5, 1:50 pm)29.83 "Hg (Feb 21, 12:20 am)
Average40 °F87%30.33 "Hg
* Reported Feb 21 12:20 am — Mar 8 12:20 am, Amrum. Weather by CustomWeather, © 2021

Note: Actual official high and low records may vary slightly from our data, if they occured in-between our weather recording intervals... More about our weather records

Amrum Weather History for the Previous 24 Hours

Scroll right to see more
 ConditionsComfort  
Time TempWeatherWind HumidityBarometerVisibility
12:20 am
Mon, Mar 8
34 °FClear.7 mph81%30.18 "HgN/A
11:50 pm
Sun, Mar 7
32 °FClear.8 mph80%30.18 "HgN/A
11:20 pm32 °FClear.8 mph80%30.18 "HgN/A
10:50 pm34 °FClear.9 mph81%30.15 "HgN/A
10:20 pm34 °FClear.9 mph87%30.15 "HgN/A
9:50 pm34 °FClear.8 mph81%30.15 "HgN/A
9:20 pm34 °FClear.10 mph87%30.15 "HgN/A
8:50 pm36 °FClear.14 mph81%30.12 "HgN/A
8:20 pm36 °FClear.14 mph81%30.12 "HgN/A
7:50 pm36 °FClear.14 mph81%30.12 "Hg10 mi
7:20 pm36 °FClear.14 mph81%30.12 "Hg10 mi
6:50 pm36 °FPassing clouds.14 mph81%30.12 "HgN/A
6:20 pm36 °FPassing clouds.15 mph81%30.09 "HgN/A
5:50 pm37 °FScattered clouds.16 mph75%30.09 "HgN/A
5:20 pm37 °FScattered clouds.16 mph75%30.09 "HgN/A
4:50 pm37 °FPartly sunny.18 mph75%30.09 "HgN/A
4:20 pm39 °FPartly sunny.18 mph75%30.09 "HgN/A
3:50 pm39 °FScattered clouds.16 mph87%30.09 "HgN/A
3:20 pm39 °FPartly sunny.14 mph93%30.09 "HgN/A
2:50 pm39 °FLight rain. Low clouds.15 mph93%30.09 "HgN/A
2:20 pm39 °FLight rain. More clouds than sun.16 mph100%30.09 "HgN/A
1:20 pm41 °FMostly cloudy.17 mph93%30.12 "HgN/A
12:50 pm41 °FOvercast.16 mph87%30.12 "HgN/A
12:20 pm41 °FOvercast.15 mph81%30.12 "HgN/A
11:50 am41 °FOvercast.16 mph81%30.12 "HgN/A
11:20 am41 °FMostly cloudy.15 mph81%30.12 "HgN/A
10:50 am39 °FPartly sunny.16 mph87%30.12 "HgN/A
10:20 am41 °FMostly cloudy.16 mph81%30.12 "HgN/A
9:50 am39 °FOvercast.16 mph87%30.15 "HgN/A
9:20 am39 °FOvercast.16 mph87%30.15 "HgN/A
8:20 am39 °FPassing clouds.17 mph87%30.15 "HgN/A
7:50 am39 °FSunny.17 mph87%30.15 "HgN/A
7:20 am37 °FScattered clouds.17 mph87%30.15 "HgN/A
6:50 am39 °FClear.17 mph75%30.18 "HgN/A
6:20 am37 °FPassing clouds.17 mph75%30.18 "HgN/A
5:50 am39 °FPassing clouds.20 mph75%30.18 "HgN/A
5:20 am39 °FPassing clouds.17 mph75%30.18 "HgN/A
4:50 am39 °FOvercast.16 mph81%30.21 "HgN/A
4:20 am39 °FOvercast.17 mph81%30.21 "HgN/A
3:50 am37 °FOvercast.18 mph87%30.21 "HgN/A
3:20 am37 °FOvercast.17 mph81%30.21 "HgN/A
2:20 am37 °FOvercast.18 mph75%30.27 "HgN/A
1:50 am37 °FOvercast.17 mph75%30.27 "HgN/A
1:20 am37 °FOvercast.18 mph75%30.27 "HgN/A
Weather by CustomWeather, © 2021

See weather overview